Location: Pasarilla del Rebollar
(40.6790°N, 5.0062°W)
Time: 11:41:14
(UTC+00:00)

ADEOS II - Pass Details

Date: 22 April 2026
Orbit: 793 x 795 km, 98.8° (Epoch: 15 May)

Event Time Altitude Azimuth Distance (km) Brightness Sun altitude
Rises 02:08:12 0° 32° (NNE) 3,302 6.4 -31.4°
Reaches altitude 10° 02:11:24 10° 52° (NE) 2,366 5.3 -31.1°
Maximum altitude 02:14:42 17° 92° (E) 1,923 4.3 -30.7°
Enters shadow 02:16:31 14° 116° (ESE) 2,060 4.3 -30.5°
